GW1454 Weather Reports


Display with metric or nautical units.
time (UTC)temp
F
wind
direction
speed
MPH
gust
MPH
rain 1hr
in
rain 24hr
in
rain mn
in
humidity
%
barometer
mb
20260903200110 97 51 1.0 4.0 0.00 0.00 0.00 47 1017.0
20260903195546 97 20 2.0 5.0 0.00 0.00 0.00 48 1017.0
20260903195044 97 227 2.0 6.0 0.00 0.00 0.00 49 1017.1
20260903194600 97 106 1.0 6.0 0.00 0.00 0.00 52 1017.2
20260903194045 96 270 2.0 6.0 0.00 0.00 0.00 51 1017.2
20260903193544 96 115 0.0 2.0 0.00 0.00 0.00 52 1017.2
20260903193108 96 102 0.0 2.0 0.00 0.00 0.00 53 1017.3
20260903192545 97 102 0.0 3.0 0.00 0.00 0.00 46 1017.2
20260903192044 96 0 0.0 3.0 0.00 0.00 0.00 48 1017.4
20260903191611 96 0 0.0 3.0 0.00 0.00 0.00 49 1017.4
20260903191050 97 297 1.0 2.0 0.00 0.00 0.00 46 1017.4
20260903190548 96 99 1.0 6.0 0.00 0.00 0.00 48 1017.4
20260903185546 98 76 1.0 8.0 0.00 0.00 0.00 46 1017.7
20260903185045 97 0 1.0 8.0 0.00 0.00 0.00 47 1017.7
20260903184606 97 118 1.0 8.0 0.00 0.00 0.00 48 1017.7
20260903184045 97 0 1.0 3.0 0.00 0.00 0.00 50 1017.6
20260903183544 96 153 1.0 3.0 0.00 0.00 0.00 48 1017.7
20260903183054 96 0 0.0 3.0 0.00 0.00 0.00 49 1017.8
20260903182546 96 119 1.0 3.0 0.00 0.00 0.00 52 1017.8
20260903182045 96 71 2.0 4.0 0.00 0.00 0.00 47 1017.9
20260903181605 96 0 0.0 6.0 0.00 0.00 0.00 50 1018.0
20260903181045 96 249 2.0 6.0 0.00 0.00 0.00 49 1018.1
20260903180547 96 286 1.0 6.0 0.00 0.00 0.00 49 1018.2
20260903180108 96 51 2.0 6.0 0.00 0.00 0.00 50 1018.1
20260903175545 96 337 3.0 6.0 0.00 0.00 0.00 51 1018.2
20260903175045 96 66 1.0 3.0 0.00 0.00 0.00 48 1018.3
20260903174606 96 0 0.0 4.0 0.00 0.00 0.00 50 1018.3
20260903174048 95 0 1.0 4.0 0.00 0.00 0.00 49 1018.4
20260903173544 95 351 2.0 4.0 0.00 0.00 0.00 53 1018.4
20260903173106 95 321 1.0 4.0 0.00 0.00 0.00 53 1018.5
20260903172545 94 105 0.0 4.0 0.00 0.00 0.00 53 1018.4
20260903172047 94 144 2.0 5.0 0.00 0.00 0.00 54 1018.5
20260903171612 94 96 3.0 5.0 0.00 0.00 0.00 52 1018.4
20260903171044 94 71 1.0 5.0 0.00 0.00 0.00 52 1018.7
20260903170544 94 154 2.0 4.0 0.00 0.00 0.00 52 1018.7
20260903170103 94 0 0.0 6.0 0.00 0.00 0.00 57 1018.8
20260903165545 94 88 2.0 6.0 0.00 0.00 0.00 55 1018.8
20260903165045 95 102 2.0 5.0 0.00 0.00 0.00 53 1018.9
20260903164601 94 113 1.0 7.0 0.00 0.00 0.00 55 1018.9
20260903164045 94 18 1.0 7.0 0.00 0.00 0.00 54 1018.9
20260903163547 94 32 0.0 6.0 0.00 0.00 0.00 57 1019.1
20260903163106 94 0 0.0 6.0 0.00 0.00 0.00 57 1019.1
20260903162550 94 350 2.0 6.0 0.00 0.00 0.00 56 1019.1
20260903162047 94 136 0.0 4.0 0.00 0.00 0.00 57 1019.1
20260903161607 93 0 0.0 6.0 0.00 0.00 0.00 54 1019.3
20260903161046 93 165 0.0 6.0 0.00 0.00 0.00 55 1019.2
20260903160547 93 123 1.0 4.0 0.00 0.00 0.00 54 1019.2
20260903155547 92 76 2.0 4.0 0.00 0.00 0.00 57 1019.3
20260903155047 92 0 2.0 4.0 0.00 0.00 0.00 59 1019.3
20260903154556 92 0 1.0 3.0 0.00 0.00 0.00 61 1019.3
20260903154047 92 0 0.0 3.0 0.00 0.00 0.00 60 1019.3
20260903153546 92 49 1.0 3.0 0.00 0.00 0.00 60 1019.3
20260903153055 91 0 0.0 3.0 0.00 0.00 0.00 61 1019.4
20260903152547 90 0 2.0 3.0 0.00 0.00 0.00 63 1019.5
20260903152049 90 128 1.0 4.0 0.00 0.00 0.00 63 1019.6
20260903151612 90 134 1.0 4.0 0.00 0.00 0.00 64 1019.6
20260903151046 90 112 1.0 4.0 0.00 0.00 0.00 63 1019.5
20260903150546 90 128 1.0 3.0 0.00 0.00 0.00 65 1019.4
20260903150107 90 0 0.0 3.0 0.00 0.00 0.00 67 1019.5
20260903145547 90 0 0.0 3.0 0.00 0.00 0.00 66 1019.4
20260903145048 89 0 0.0 3.0 0.00 0.00 0.00 67 1019.4
20260903144557 89 0 0.0 2.0 0.00 0.00 0.00 69 1019.6
20260903144049 88 0 0.0 3.0 0.00 0.00 0.00 69 1019.4
20260903143546 88 0 1.0 3.0 0.00 0.00 0.00 69 1019.4
20260903143103 88 0 0.0 3.0 0.00 0.00 0.00 70 1019.5
20260903142547 88 0 0.0 3.0 0.00 0.00 0.00 69 1019.5
20260903142046 88 0 0.0 2.0 0.00 0.00 0.00 70 1019.5
20260903141603 87 0 0.0 3.0 0.00 0.00 0.00 72 1019.5
20260903141046 86 0 0.0 3.0 0.00 0.00 0.00 73 1019.5
20260903140548 85 126 0.0 2.0 0.00 0.00 0.00 75 1019.6
20260903140105 85 143 0.0 4.0 0.00 0.00 0.00 74 1019.4
20260903135547 85 146 0.0 4.0 0.00 0.00 0.00 73 1019.5
20260903135047 85 118 0.0 2.0 0.00 0.00 0.00 77 1019.4
20260903134607 84 0 0.0 2.0 0.00 0.00 0.00 79 1019.3
20260903134046 83 140 0.0 2.0 0.00 0.00 0.00 79 1019.3
20260903133547 83 0 0.0 2.0 0.00 0.00 0.00 80 1019.3
20260903133055 83 118 0.0 2.0 0.00 0.00 0.00 80 1019.4
20260903132544 83 0 0.0 2.0 0.00 0.00 0.00 80 1019.4
20260903132045 82 154 0.0 2.0 0.00 0.00 0.00 81 1019.4
20260903131604 82 150 0.0 2.0 0.00 0.00 0.00 79 1019.4
20260903131045 83 0 0.0 0.0 0.00 0.00 0.00 79 1019.4
20260903130545 84 0 0.0 0.0 0.00 0.00 0.00 79 1019.4
20260903130103 83 0 0.0 0.0 0.00 0.00 0.00 81 1019.5
20260903125545 82 0 0.0 0.0 0.00 0.00 0.00 79 1019.3
20260903125045 82 0 0.0 0.0 0.00 0.00 0.00 80 1019.2
20260903124610 82 0 0.0 0.0 0.00 0.00 0.00 80 1019.3
20260903124044 82 0 0.0 0.0 0.00 0.00 0.00 81 1019.4
20260903123545 81 0 0.0 0.0 0.00 0.00 0.00 82 1019.2
20260903123103 80 0 0.0 0.0 0.00 0.00 0.00 85 1019.3
20260903122545 79 0 0.0 0.0 0.00 0.00 0.00 85 1019.3
20260903122046 77 0 0.0 0.0 0.00 0.00 0.00 88 1019.3
20260903121603 76 0 0.0 0.0 0.00 0.00 0.00 89 1019.3
20260903121045 75 0 0.0 0.0 0.00 0.00 0.00 91 1019.4
20260903120547 74 0 0.0 0.0 0.00 0.00 0.00 93 1019.4
20260903120106 73 0 0.0 0.0 0.00 0.00 0.00 95 1019.2
20260903115544 72 0 0.0 0.0 0.00 0.00 0.00 96 1019.3
20260903115045 71 0 0.0 0.0 0.00 0.00 0.00 95 1019.1
20260903114605 71 0 0.0 0.0 0.00 0.00 0.00 95 1019.1
20260903114048 71 0 0.0 0.0 0.00 0.00 0.00 96 1019.0
20260903113545 70 0 0.0 0.0 0.00 0.00 0.00 96 1018.9
20260903113052 70 0 0.0 0.0 0.00 0.00 0.00 96 1018.8
20260903112546 70 0 0.0 0.0 0.00 0.00 0.00 96 1018.8
20260903112046 70 0 0.0 0.0 0.00 0.00 0.00 96 1018.7
20260903111603 70 0 0.0 0.0 0.00 0.00 0.00 96 1018.6
20260903111047 70 0 0.0 0.0 0.00 0.00 0.00 96 1018.7
20260903110545 70 0 0.0 0.0 0.00 0.00 0.00 96 1018.7
20260903110058 70 0 0.0 0.0 0.00 0.00 0.00 96 1018.7
20260903105548 70 0 0.0 0.0 0.00 0.00 0.00 95 1018.7
20260903105045 70 0 0.0 0.0 0.00 0.00 0.00 95 1018.6
20260903104608 70 0 0.0 0.0 0.00 0.00 0.00 95 1018.5
20260903104046 70 0 0.0 0.0 0.00 0.00 0.00 95 1018.4
20260903103548 70 0 0.0 0.0 0.00 0.00 0.00 95 1018.5
20260903103106 70 0 0.0 0.0 0.00 0.00 0.00 95 1018.6
20260903102546 70 0 0.0 0.0 0.00 0.00 0.00 95 1018.6
20260903102047 70 0 0.0 0.0 0.00 0.00 0.00 95 1018.4
20260903101603 70 0 0.0 0.0 0.00 0.00 0.00 95 1018.4
20260903101045 70 0 0.0 0.0 0.00 0.00 0.00 95 1018.4
20260903100545 70 0 0.0 0.0 0.00 0.00 0.00 95 1018.4
20260903100057 70 0 0.0 0.0 0.00 0.00 0.00 95 1018.3
20260903095545 70 0 0.0 0.0 0.00 0.00 0.00 95 1018.2
20260903095045 70 0 0.0 0.0 0.00 0.00 0.00 95 1018.2
20260903094610 70 0 0.0 0.0 0.00 0.00 0.00 95 1018.3
20260903094045 70 0 0.0 0.0 0.00 0.00 0.00 95 1018.3
20260903093545 70 0 0.0 0.0 0.00 0.00 0.00 94 1018.3
20260903093106 70 0 0.0 0.0 0.00 0.00 0.00 94 1018.2
20260903092545 70 0 0.0 0.0 0.00 0.00 0.00 94 1018.2
20260903092046 70 0 0.0 0.0 0.00 0.00 0.00 94 1018.1
20260903091608 70 0 0.0 0.0 0.00 0.00 0.00 94 1018.1
20260903091046 70 0 0.0 0.0 0.00 0.00 0.00 94 1018.1
20260903090545 71 0 0.0 0.0 0.00 0.00 0.00 94 1018.0
20260903090056 71 0 0.0 0.0 0.00 0.00 0.00 94 1018.0
20260903085544 71 0 0.0 0.0 0.00 0.00 0.00 94 1018.0
20260903085044 71 0 0.0 0.0 0.00 0.00 0.00 94 1018.0
20260903084553 70 0 0.0 0.0 0.00 0.00 0.00 94 1017.9
20260903084049 71 0 0.0 0.0 0.00 0.00 0.00 94 1017.9
20260903083545 71 0 0.0 0.0 0.00 0.00 0.00 94 1018.0
20260903083101 71 0 0.0 0.0 0.00 0.00 0.00 94 1018.0
20260903082544 71 0 0.0 0.0 0.00 0.00 0.00 94 1018.0
20260903082048 71 0 0.0 0.0 0.00 0.00 0.00 93 1017.9
20260903081555 71 0 0.0 0.0 0.00 0.00 0.00 94 1017.9
20260903081044 71 0 0.0 0.0 0.00 0.00 0.00 93 1017.8
20260903080545 71 0 0.0 0.0 0.00 0.00 0.00 93 1017.9
20260903080051 71 0 0.0 0.0 0.00 0.00 0.00 93 1017.8
20260903075546 71 0 0.0 0.0 0.00 0.00 0.00 93 1017.9
20260903075048 71 0 0.0 0.0 0.00 0.00 0.00 93 1017.9
20260903074602 71 0 0.0 0.0 0.00 0.00 0.00 93 1017.9
20260903074045 71 0 0.0 0.0 0.00 0.00 0.00 93 1017.8
20260903073545 71 0 0.0 0.0 0.00 0.00 0.00 93 1017.6
20260903073102 72 0 0.0 0.0 0.00 0.00 0.00 92 1017.7
20260903072544 72 0 0.0 0.0 0.00 0.00 0.00 93 1017.7
20260903072045 72 0 0.0 0.0 0.00 0.00 0.00 92 1017.8
20260903071605 72 0 0.0 0.0 0.00 0.00 0.00 92 1017.9
20260903071050 72 0 0.0 0.0 0.00 0.00 0.00 92 1017.9
20260903070546 72 0 0.0 0.0 0.00 0.00 0.00 92 1017.9
20260903070054 72 0 0.0 0.0 0.00 0.00 0.00 92 1018.0
20260903065545 72 0 0.0 0.0 0.00 0.00 0.00 92 1017.9
20260903065044 72 0 0.0 0.0 0.00 0.00 0.00 92 1017.9
20260903064558 72 0 0.0 0.0 0.00 0.00 0.00 92 1017.9
20260903064045 72 0 0.0 0.0 0.00 0.00 0.00 92 1017.9
20260903063546 72 0 0.0 0.0 0.00 0.00 0.00 92 1018.0
20260903063052 72 0 0.0 0.0 0.00 0.00 0.00 92 1017.8
20260903062546 72 0 0.0 0.0 0.00 0.00 0.00 92 1017.9
20260903062046 72 0 0.0 0.0 0.00 0.00 0.00 92 1017.9
20260903061618 72 0 0.0 0.0 0.00 0.00 0.00 91 1018.0
20260903061045 72 0 0.0 0.0 0.00 0.00 0.00 91 1018.0
20260903060546 72 0 0.0 0.0 0.00 0.00 0.00 92 1017.9
20260903055546 73 0 0.0 0.0 0.00 0.00 0.00 91 1018.0
20260903055044 73 0 0.0 0.0 0.00 0.00 0.00 91 1018.0
20260903054603 73 0 0.0 0.0 0.00 0.00 0.00 92 1017.9
20260903054045 73 0 0.0 0.0 0.00 0.00 0.00 91 1018.0
20260903053547 73 0 0.0 0.0 0.00 0.00 0.00 91 1018.0
20260903053110 73 0 0.0 0.0 0.00 0.00 0.00 92 1018.0
20260903052545 73 0 0.0 0.0 0.00 0.00 0.00 92 1018.0
20260903052045 73 0 0.0 0.0 0.00 0.00 0.00 91 1018.0
20260903051602 73 0 0.0 0.0 0.00 0.00 0.00 91 1018.0
20260903051048 73 0 0.0 0.0 0.00 0.00 0.00 91 1018.0
20260903050544 73 0 0.0 0.0 0.00 0.00 0.00 91 1017.9
20260903050056 74 0 0.0 0.0 0.00 0.00 0.00 91 1018.0
20260903045545 74 0 0.0 0.0 0.00 0.00 0.00 91 1018.0
20260903045045 74 0 0.0 0.0 0.00 0.00 0.00 91 1018.0
20260903044602 74 0 0.0 0.0 0.00 0.00 0.00 91 1017.9
20260903044046 74 0 0.0 0.0 0.00 0.00 0.00 91 1018.0
20260903043546 74 0 0.0 0.0 0.00 0.00 0.00 91 1017.9
20260903043102 74 0 0.0 0.0 0.00 0.00 0.00 91 1017.8
20260903042545 74 0 0.0 0.0 0.00 0.00 0.00 91 1018.0
20260903042045 74 0 0.0 0.0 0.00 0.00 0.00 90 1018.0
20260903041558 74 0 0.0 0.0 0.00 0.00 0.00 90 1018.0
20260903041044 74 0 0.0 0.0 0.00 0.00 0.00 90 1018.0
20260903040546 74 0 0.0 0.0 0.00 0.00 0.00 90 1018.0
20260903040107 75 0 0.0 0.0 0.00 0.00 0.00 90 1018.0
20260903035545 75 0 0.0 0.0 0.00 0.00 0.00 90 1018.0
20260903035045 75 0 0.0 0.0 0.00 0.00 0.00 90 1018.0
20260903034604 75 0 0.0 0.0 0.00 0.00 0.00 90 1018.0
20260903034046 75 0 0.0 0.0 0.00 0.00 0.00 90 1018.1
20260903033549 75 0 0.0 0.0 0.00 0.00 0.00 89 1018.2
20260903033101 75 0 0.0 0.0 0.00 0.00 0.00 89 1018.3
20260903032545 75 0 0.0 0.0 0.00 0.00 0.00 89 1018.2
20260903032045 75 0 0.0 0.0 0.00 0.00 0.00 89 1018.4
20260903031608 75 0 0.0 0.0 0.00 0.00 0.00 88 1018.4
20260903031044 75 0 0.0 0.0 0.00 0.00 0.00 88 1018.4
20260903030545 76 0 0.0 0.0 0.00 0.00 0.00 87 1018.4
20260903030055 76 0 0.0 0.0 0.00 0.00 0.00 87 1018.4
20260903025544 76 0 0.0 0.0 0.00 0.00 0.00 87 1018.5
20260903025045 76 0 0.0 0.0 0.00 0.00 0.00 87 1018.6
20260903024602 76 0 0.0 0.0 0.00 0.00 0.00 87 1018.7
20260903024046 76 0 0.0 0.0 0.00 0.00 0.00 87 1018.6
20260903023549 76 0 0.0 0.0 0.00 0.00 0.00 86 1018.6
20260903023135 76 0 0.0 0.0 0.00 0.00 0.00 86 1018.7
20260903022545 77 0 0.0 0.0 0.00 0.00 0.00 86 1018.7
20260903022045 77 0 0.0 0.0 0.00 0.00 0.00 85 1018.8
20260903021608 77 0 0.0 0.0 0.00 0.00 0.00 85 1018.9
20260903021046 77 0 0.0 0.0 0.00 0.00 0.00 84 1018.8
20260903020545 77 0 0.0 0.0 0.00 0.00 0.00 85 1018.9
20260903020108 78 0 0.0 0.0 0.00 0.00 0.00 85 1018.9
20260903015548 78 0 0.0 0.0 0.00 0.00 0.00 85 1018.9
20260903015046 78 0 0.0 0.0 0.00 0.00 0.00 84 1018.9
20260903014602 78 0 0.0 0.0 0.00 0.00 0.00 84 1018.9
20260903014045 78 0 0.0 0.0 0.00 0.00 0.00 84 1018.9
20260903013549 78 0 0.0 0.0 0.00 0.00 0.00 84 1019.0
20260903013100 78 0 0.0 0.0 0.00 0.00 0.00 84 1018.9
20260903012550 79 0 0.0 0.0 0.00 0.00 0.00 83 1018.7
20260903012045 79 0 0.0 0.0 0.00 0.00 0.00 84 1018.7
20260903011606 79 0 0.0 0.0 0.00 0.00 0.00 83 1018.7
20260903011046 80 0 0.0 0.0 0.00 0.00 0.00 83 1018.5
20260903010545 80 0 0.0 0.0 0.00 0.00 0.00 83 1018.6
20260903005545 80 0 0.0 0.0 0.00 0.00 0.00 82 1018.5
20260903005045 80 0 0.0 0.0 0.00 0.00 0.00 81 1018.4
20260903004604 81 0 0.0 0.0 0.00 0.00 0.00 81 1018.4
20260903004045 81 0 0.0 0.0 0.00 0.00 0.00 80 1018.4
20260903003545 81 0 0.0 0.0 0.00 0.00 0.00 79 1018.3
20260903003056 82 0 0.0 0.0 0.00 0.00 0.00 78 1018.3
20260903002545 82 0 0.0 0.0 0.00 0.00 0.00 78 1018.3
20260903002047 82 0 0.0 0.0 0.00 0.00 0.00 78 1018.3
20260903001555 83 0 0.0 0.0 0.00 0.00 0.00 77 1018.3
20260903001045 83 0 0.0 0.0 0.00 0.00 0.00 75 1018.2
20260903000545 84 0 0.0 0.0 0.00 0.00 0.00 76 1018.1
20260903000105 84 0 0.0 0.0 0.00 0.00 0.00 75 1018.1
20260902235545 85 0 0.0 0.0 0.00 0.00 0.00 74 1018.2
20260902235045 85 0 0.0 0.0 0.00 0.00 0.00 73 1018.1
20260902234606 86 0 0.0 0.0 0.00 0.00 0.00 72 1018.1
20260902234048 86 0 0.0 0.0 0.00 0.00 0.00 71 1018.1
20260902233545 87 0 0.0 0.0 0.00 0.00 0.00 69 1018.0
20260902233105 87 0 0.0 0.0 0.00 0.00 0.00 70 1017.9
20260902232546 87 0 0.0 0.0 0.00 0.00 0.00 68 1017.9
20260902232046 88 0 0.0 0.0 0.00 0.00 0.00 68 1017.9
20260902231601 88 0 0.0 0.0 0.00 0.00 0.00 66 1017.9
20260902231045 89 0 0.0 0.0 0.00 0.00 0.00 65 1017.9
20260902230545 90 0 0.0 1.0 0.00 0.00 0.00 63 1017.9
20260902230113 90 0 0.0 1.0 0.00 0.00 0.00 62 1017.8
20260902225545 91 0 0.0 0.0 0.00 0.00 0.00 61 1017.8
20260902225045 92 0 0.0 0.0 0.00 0.00 0.00 61 1017.7
20260902224605 92 0 0.0 0.0 0.00 0.00 0.00 59 1017.7
20260902224045 93 0 0.0 0.0 0.00 0.00 0.00 58 1017.7
20260902223545 94 0 0.0 1.0 0.00 0.00 0.00 56 1017.7
20260902223059 95 0 0.0 2.0 0.00 0.00 0.00 53 1017.7
20260902222548 95 0 0.0 2.0 0.00 0.00 0.00 52 1017.8
20260902222046 95 0 0.0 2.0 0.00 0.00 0.00 51 1017.7
20260902221558 95 0 0.0 2.0 0.00 0.00 0.00 52 1017.8
20260902221046 96 0 0.0 0.0 0.00 0.00 0.00 52 1017.8
20260902220545 97 0 0.0 0.0 0.00 0.00 0.00 49 1017.8
20260902220106 97 0 0.0 0.0 0.00 0.00 0.00 46 1017.8
20260902215546 96 0 0.0 0.0 0.00 0.00 0.00 51 1017.8
20260902215046 97 0 0.0 0.0 0.00 0.00 0.00 50 1017.8
20260902214601 97 0 0.0 0.0 0.00 0.00 0.00 48 1017.9
20260902214048 97 0 0.0 0.0 0.00 0.00 0.00 48 1018.0
20260902213545 96 0 0.0 0.0 0.00 0.00 0.00 50 1018.0
20260902213100 96 0 0.0 2.0 0.00 0.00 0.00 46 1017.9
20260902212548 96 0 0.0 3.0 0.00 0.00 0.00 49 1018.0
20260902212045 96 0 0.0 3.0 0.00 0.00 0.00 47 1018.0
20260902211619 97 0 0.0 3.0 0.00 0.00 0.00 45 1017.9
20260902211045 97 0 0.0 0.0 0.00 0.00 0.00 47 1018.0
20260902210545 97 0 0.0 3.0 0.00 0.00 0.00 47 1018.0
20260902205545 96 110 1.0 3.0 0.00 0.00 0.00 45 1018.0
20260902205045 96 0 0.0 4.0 0.00 0.00 0.00 45 1018.1
20260902204603 95 0 0.0 4.0 0.00 0.00 0.00 46 1018.1
20260902204050 95 101 2.0 4.0 0.00 0.00 0.00 44 1018.0
20260902203545 96 106 1.0 4.0 0.00 0.00 0.00 49 1018.1
20260902203105 95 111 1.0 3.0 0.00 0.00 0.00 48 1018.2
20260902202545 95 128 1.0 3.0 0.00 0.00 0.00 46 1018.1
20260902202047 95 92 0.0 5.0 0.00 0.00 0.00 49 1018.1
20260902201554 95 118 2.0 5.0 0.00 0.00 0.00 49 1018.2
20260902201044 95 46 2.0 5.0 0.00 0.00 0.00 51 1018.2
20260902200547 95 0 0.0 2.0 0.00 0.00 0.00 50 1018.2